Theta_e
309 309 308 309 310 310 310 310 310 309 310 310 310 310 310 312 314 316 322 325 329 325 326 328 330 330 330 334 338 339 343 342 344 343 342 340 343 343 341 344 348 348 346 343 337
310 309 308 309 310 310 310 310 310 310 310 310 310 311 311 314 319 325 325 324 323 324 326 331 334 335 337 340 338 340 346 342 342 342 343 344 345 345 347 349 349 347 343 340 335
311 310 309 309 310 310 311 310 311 311 311 311 311 311 312 318 332 329 325 322 322 322 327 331 330 337 340 338 340 340 342 343 342 342 343 343 344 343 347 348 349 348 344 338 333
312 311 310 309 310 311 311 311 311 311 311 311 311 312 314 326 335 327 322 321 320 323 329 329 329 337 339 340 340 342 341 343 342 342 342 346 344 345 346 345 346 344 341 335 330
313 312 311 309 310 311 311 312 312 312 312 312 312 312 320 331 332 323 321 320 320 325 328 331 334 337 338 341 341 341 342 343 343 343 343 343 346 345 346 345 344 342 336 332 328
314 314 312 310 310 311 312 312 313 313 313 313 313 313 326 331 328 321 323 322 325 326 330 334 336 335 337 335 337 339 342 343 343 344 343 345 344 345 345 344 344 339 334 331 330
315 315 312 310 310 311 312 313 314 314 314 314 314 317 329 329 329 327 326 327 328 329 332 332 333 335 334 343 340 343 341 342 347 344 345 344 346 347 343 342 342 339 336 332 328
315 316 313 310 311 312 313 314 315 316 316 315 314 324 327 328 329 327 327 328 328 327 330 331 332 335 339 335 335 345 343 343 340 343 345 344 351 344 342 341 340 339 337 334 331
315 316 315 311 311 312 314 315 316 317 317 316 318 329 325 328 328 328 327 328 327 327 330 330 331 338 338 340 339 340 352 347 346 342 349 346 351 344 341 341 341 340 337 335 332
315 317 316 312 311 313 314 316 322 318 319 321 325 331 329 326 327 327 328 327 328 329 329 331 337 339 337 341 348 334 334 344 349 344 342 343 350 344 342 341 340 339 338 336 334
316 317 316 313 312 313 314 322 329 330 330 327 325 327 331 327 327 328 328 328 329 330 330 332 338 338 335 337 337 333 337 340 340 336 338 339 348 345 342 341 341 341 340 337 334
317 318 316 313 312 313 314 328 328 326 328 328 329 326 327 328 328 329 327 329 330 330 330 329 327 336 334 335 333 338 338 342 341 340 340 338 346 346 344 343 338 337 340 338 333
317 318 316 313 312 314 322 327 327 325 326 327 327 327 328 328 328 330 328 328 329 330 328 327 327 332 333 333 337 337 337 338 336 333 341 339 351 348 345 340 336 334 336 334 331
318 318 315 312 315 324 328 327 325 325 327 328 325 327 328 329 328 328 328 328 327 326 327 326 328 330 331 334 337 338 333 335 334 334 334 340 341 348 345 339 335 333 332 333 334
319 318 315 312 317 327 327 325 325 325 329 327 325 326 328 327 328 328 328 328 326 327 327 327 328 331 333 332 335 332 334 335 335 336 337 340 349 346 343 339 337 333 330 330 332
319 318 314 315 316 324 324 326 329 326 332 326 326 325 327 327 327 328 327 328 326 325 326 327 328 331 333 334 333 336 338 337 338 336 341 347 346 348 344 337 334 330 329 328 326
320 318 314 317 328 325 325 328 330 329 332 332 325 325 326 326 326 326 327 327 326 326 327 329 331 334 335 335 336 337 338 336 335 331 339 344 345 345 338 333 332 330 327 325 325
320 315 315 312 323 324 325 329 334 331 331 331 327 325 325 325 325 326 326 326 327 327 329 332 335 335 335 338 336 336 333 334 336 337 333 331 347 343 335 332 330 328 326 326 326
316 318 317 321 321 324 328 330 333 338 337 334 327 325 325 326 328 329 329 330 332 333 336 335 335 337 336 335 334 332 331 329 332 331 330 339 339 336 332 329 327 326 326 326 325
320 326 319 323 325 326 329 329 331 336 333 336 331 328 327 327 331 331 332 335 335 333 334 334 340 335 335 334 333 331 330 331 331 333 334 336 345 341 335 331 327 327 327 326 325
324 327 322 326 326 328 330 329 336 335 333 336 336 334 333 337 334 334 336 338 336 333 333 335 337 337 335 334 333 331 325 329 332 331 336 341 344 335 333 330 328 327 326 325 323
329 331 327 323 327 326 327 331 331 335 334 335 337 340 337 341 342 338 343 339 332 333 335 333 335 335 332 331 329 328 328 330 333 334 333 328 336 331 330 329 328 326 325 323 320
334 329 326 322 325 326 330 333 334 334 333 334 334 333 334 337 336 333 337 332 332 335 338 337 333 332 329 336 335 332 330 327 328 332 333 335 342 331 330 328 327 325 323 321 316
334 326 325 325 327 332 338 333 333 331 333 333 333 333 333 335 336 335 337 333 332 331 333 338 333 332 330 332 330 333 329 327 328 331 331 331 336 332 330 328 325 323 321 316 316
334 334 328 325 325 328 338 338 334 333 332 332 332 332 334 336 335 336 337 335 332 331 334 335 336 334 331 329 328 328 326 326 327 326 327 327 327 333 329 327 322 320 316 316 316
342 341 336 330 331 331 330 339 336 335 334 334 335 335 331 337 337 340 341 338 337 336 334 333 340 333 333 330 328 327 327 326 326 328 327 327 330 329 326 323 321 318 317 316 316
338 336 333 328 329 332 337 336 336 333 335 334 333 334 337 335 332 334 337 337 335 334 336 336 338 337 334 334 333 328 331 329 326 326 327 328 328 325 323 321 317 316 316 316 316
Wind_Speed
13 11 9 7 7 7 7 7 7 6 7 9 9 9 10 10 8 8 12 6 8 6 8 10 15 18 19 18 16 10 4 5 10 11 13 10 10 5 3 13 19 14 18 25 21
13 11 8 7 7 7 7 7 7 7 7 9 8 9 10 10 8 16 10 5 2 9 11 18 15 11 6 17 7 8 1 4 17 13 13 9 10 7 8 5 11 16 20 22 19
14 12 10 7 7 8 7 8 8 8 8 9 9 10 10 5 8 11 13 6 5 10 17 19 13 9 6 10 9 10 5 14 13 8 14 10 11 3 14 2 13 18 16 14 17
15 13 11 9 8 9 8 8 9 8 9 9 9 10 8 1 3 5 11 9 8 9 14 21 13 1 13 11 11 6 9 12 9 7 4 13 13 11 14 13 15 16 19 17 15
16 13 12 9 8 9 8 8 9 9 10 10 9 10 4 8 7 11 12 12 10 11 19 16 8 5 6 10 14 8 5 9 8 7 8 7 12 12 12 15 15 19 16 14 15
17 14 12 9 8 8 8 8 9 10 10 10 9 10 4 12 8 12 13 12 11 16 24 14 15 1 5 6 5 11 6 6 5 9 9 12 12 10 11 19 17 16 15 12 14
17 15 11 8 8 9 9 9 10 12 11 10 8 5 7 13 9 12 13 11 13 15 14 5 14 15 10 25 26 29 21 21 16 7 6 7 10 10 13 16 16 13 12 11 15
17 15 11 8 7 8 9 10 11 13 12 9 6 3 7 6 8 13 12 13 7 9 13 7 10 15 19 12 13 11 11 5 19 20 6 4 11 13 15 14 13 13 11 10 10
18 15 12 8 8 8 9 10 12 9 7 6 4 6 15 6 12 15 13 10 7 11 11 8 9 13 10 10 11 13 18 23 14 18 9 10 13 13 12 12 12 11 11 12 11
18 15 12 9 8 8 9 10 5 2 1 2 12 7 9 11 15 15 11 9 10 10 11 11 3 2 4 9 15 15 12 13 12 8 11 8 13 11 10 10 14 12 11 11 13
17 15 12 10 8 9 8 4 5 4 9 11 15 19 16 16 17 13 12 10 12 14 14 16 11 11 8 17 20 13 11 12 14 10 6 5 16 15 13 8 6 11 15 14 10
17 15 12 10 9 9 8 7 7 5 7 21 21 22 26 19 11 14 13 10 13 14 19 10 13 9 8 20 8 19 12 5 15 22 6 9 9 8 13 11 6 7 9 7 8
17 14 12 10 10 12 14 18 6 8 6 18 15 21 16 17 16 18 14 14 16 18 15 13 13 6 9 8 16 13 25 7 13 16 15 4 8 11 11 11 8 7 11 8 5
17 14 12 10 8 14 18 6 7 5 8 13 16 15 9 13 18 17 19 14 21 16 18 10 15 2 10 4 6 11 14 18 20 18 15 7 7 4 5 8 5 8 4 6 3
17 13 11 9 14 10 5 2 2 3 6 14 18 15 13 17 16 15 21 18 16 18 16 14 15 10 12 12 10 15 16 18 19 14 19 1 7 1 3 7 7 7 9 9 8
17 13 10 8 12 15 3 2 3 7 5 7 13 17 15 15 16 17 14 15 14 15 20 19 19 5 6 18 15 11 14 19 21 12 11 9 8 9 5 8 9 6 9 10 11
16 13 12 13 9 3 5 7 7 12 8 14 18 16 14 14 13 13 20 13 12 13 16 18 15 7 7 13 24 4 15 13 13 10 7 15 4 6 9 9 9 7 6 8 12
16 12 11 21 11 11 9 9 14 18 6 8 12 12 14 17 17 21 12 10 15 19 13 13 14 5 14 17 9 14 13 9 17 12 15 7 7 1 10 7 7 4 8 6 12
12 9 8 14 15 11 8 11 12 6 12 15 10 10 14 19 17 16 14 11 3 9 8 10 12 10 10 6 9 11 10 15 10 15 16 5 7 9 7 6 6 5 5 13 9
6 11 15 16 10 10 9 15 17 10 11 28 11 14 15 16 8 14 13 8 12 3 7 7 14 7 12 8 14 3 6 8 5 10 13 2 6 8 10 5 2 6 8 4 4
5 6 15 13 9 6 10 12 6 23 32 10 12 4 5 5 11 22 7 14 16 12 6 9 5 12 7 6 6 8 10 9 7 9 10 6 2 11 7 5 6 10 8 8 8
7 8 14 16 8 8 13 9 9 7 2 5 5 13 17 12 13 27 8 14 8 8 7 5 4 8 15 10 8 5 6 6 5 9 11 10 5 8 10 10 7 6 1 8 8
5 6 10 16 11 12 17 5 1 5 0 8 4 7 11 9 5 9 9 8 5 8 7 9 4 8 11 8 5 5 4 3 6 6 11 5 3 8 10 6 4 5 7 7 8
5 3 5 8 12 15 13 10 6 7 7 7 3 7 8 11 10 6 5 6 8 9 6 5 5 8 9 9 4 6 3 4 3 7 10 8 12 7 3 2 1 3 3 7 7
4 5 2 8 12 13 16 28 14 8 3 3 3 5 3 4 8 8 8 8 8 6 3 5 7 7 10 7 7 7 5 5 6 9 5 12 7 10 4 5 4 6 6 7 7
6 9 7 8 6 5 6 14 17 10 14 9 6 6 2 5 7 10 17 3 1 8 3 2 6 5 11 8 5 9 7 3 8 3 8 9 4 7 3 1 5 6 6 8 10
13 13 6 8 8 11 4 6 20 10 10 8 4 1 6 5 7 6 6 6 5 4 3 2 5 7 8 5 7 9 7 7 4 5 4 6 6 7 7 9 7 3 4 8 10
Wind_Direction
345 341 330 325 317 312 308 299 295 298 300 299 305 311 309 306 280 252 232 234 201 216 201 234 228 243 244 253 141 158 263 51 84 100 115 132 113 62 127 93 62 49 121 140 144
343 338 328 317 309 303 300 297 302 303 300 305 318 313 308 303 270 244 200 191 225 197 217 231 222 226 278 16 29 359 72 301 81 100 127 145 107 131 98 114 113 96 116 137 145
343 337 325 313 306 301 304 304 307 304 309 311 319 312 319 304 262 220 182 158 172 214 240 284 301 278 55 181 182 194 192 74 59 108 125 118 107 110 130 109 136 132 137 141 131
344 336 325 313 308 305 307 308 304 308 306 309 315 318 331 215 253 115 152 143 167 206 257 268 253 78 292 213 167 110 55 92 99 81 99 129 108 75 57 68 104 134 137 141 127
343 338 325 312 306 302 301 301 301 301 301 306 314 325 316 222 257 157 146 146 170 217 246 250 250 268 291 77 59 22 62 99 128 112 83 96 56 99 89 84 108 118 130 135 146
343 339 326 313 303 298 296 296 296 297 297 302 315 321 261 260 123 159 154 165 207 228 259 252 275 272 290 5 339 200 207 118 133 130 146 136 138 162 117 115 117 126 135 141 143
340 336 325 313 299 293 290 289 292 291 290 292 304 312 258 267 160 174 178 194 224 255 294 336 332 308 333 13 36 35 32 5 336 216 142 166 154 106 137 129 132 130 143 156 169
336 333 324 310 295 287 287 291 293 288 283 281 280 239 263 204 190 189 198 223 243 262 283 334 312 33 61 33 12 73 96 278 272 265 134 203 148 137 146 142 150 160 156 169 180
333 330 324 310 294 288 289 294 296 290 275 253 232 223 235 172 207 199 208 238 242 252 266 292 288 94 56 100 292 212 201 208 223 227 148 216 118 158 160 161 165 175 167 180 191
329 328 322 310 294 285 289 293 280 137 299 262 266 222 224 221 190 196 218 247 269 254 257 234 122 64 127 145 248 350 349 84 110 185 234 150 128 161 154 159 174 181 183 185 194
327 327 319 307 292 284 292 275 209 199 218 223 188 213 182 209 177 203 215 235 252 259 259 248 156 181 316 257 248 310 8 50 330 269 260 126 162 159 150 170 199 176 180 194 203
326 325 316 302 289 279 276 249 302 24 234 227 254 214 235 166 182 208 197 226 249 252 252 256 264 160 225 260 269 2 358 113 231 249 231 293 148 163 144 176 186 188 180 206 200
325 321 310 295 280 270 230 246 298 318 259 219 248 204 196 171 206 199 195 228 254 269 279 275 286 184 260 340 33 34 292 284 290 313 231 136 112 130 204 173 184 150 144 190 209
323 317 303 290 285 231 219 242 260 293 267 223 205 219 211 199 210 211 189 228 257 260 262 308 294 298 281 357 7 265 316 335 321 313 305 174 298 45 11 121 106 96 172 195 43
320 312 292 271 300 288 94 278 268 213 258 177 194 202 221 202 224 225 205 215 256 278 291 280 289 318 326 345 345 320 338 307 289 286 292 180 45 43 256 141 141 111 90 93 114
316 305 286 265 262 265 279 135 209 219 257 157 183 206 203 214 228 249 202 224 254 281 272 286 287 264 2 340 302 313 304 300 288 253 276 146 144 190 188 159 121 102 77 52 35
311 296 265 253 242 220 295 221 226 234 65 254 162 200 204 228 234 239 248 222 242 236 250 253 299 330 37 335 294 293 305 315 320 315 284 177 162 182 156 87 96 105 91 82 78
307 286 263 248 267 283 281 247 251 227 198 269 177 198 205 216 221 236 227 238 232 241 270 303 311 350 292 242 306 303 312 314 307 309 321 284 84 146 39 125 120 123 96 73 56
302 277 242 242 240 271 265 246 237 99 315 283 192 191 207 219 226 204 219 262 117 240 294 313 294 235 240 300 309 327 305 339 304 289 278 108 102 174 161 143 169 110 81 74 44
311 250 225 210 205 248 260 264 289 64 306 269 196 198 209 232 302 203 230 34 359 116 325 296 298 300 166 220 279 199 314 312 302 297 297 189 141 158 206 167 106 93 69 54 35
271 236 189 181 195 237 250 261 24 196 211 278 305 293 349 36 332 308 67 351 320 309 311 309 315 299 268 306 334 321 319 330 339 290 298 348 98 154 140 100 75 65 42 15 344
265 260 160 183 210 236 241 266 182 241 277 275 15 89 283 101 290 254 118 184 277 279 319 68 327 295 294 84 37 346 335 344 317 315 322 306 91 90 85 71 34 75 21 350 337
268 233 164 190 222 228 226 258 291 219 268 15 19 38 14 126 224 13 78 78 42 39 16 356 331 315 287 58 0 293 43 312 301 280 275 345 305 158 87 73 63 357 346 317 20
275 196 158 217 253 285 337 194 171 128 106 122 26 17 8 334 328 327 107 74 69 69 337 324 300 270 285 355 2 260 169 305 270 278 343 51 131 124 117 53 213 339 320 351 340
249 308 121 199 224 246 103 269 180 175 167 111 356 242 319 321 322 325 121 134 160 147 183 4 287 323 294 337 318 327 310 322 343 325 326 333 348 136 142 4 7 30 351 339 331
284 345 341 274 316 265 211 145 238 87 245 172 187 290 336 22 351 351 353 61 206 167 71 48 296 319 300 256 269 299 289 241 264 245 320 325 58 31 338 312 27 1 345 344 354
352 317 270 289 242 262 302 338 311 163 35 78 164 85 52 22 344 350 16 20 31 14 109 286 327 302 313 1 300 270 287 195 301 321 354 321 29 358 4 4 351 317 330 359 342